When you browse on this site, cookies collect data to enhance your experience and personalize the content and advertising you see.
Visit our Privacy Policy to learn more. By continuing to use the site, you agree to this use of cookies and data.
  • In United Kingdom
  • List of Countries
  • For 7 days
  • Water Temperature
  • Weather Map
  • Weather Widgets
  • user-avatar
    Login

    Hourly Weather São Paulo

    Today, 20 January, Monday

    Time Temperature Precipitation Wind Pressure Humidity
    00:00 +21°C° 0 mm 3 mps 698 mmHg 85%
    01:00 +21°C° 0 mm 2 mps 698 mmHg 86%
    02:00 +20°C° 0 mm 2 mps 698 mmHg 86%
    03:00 +20°C° 0 mm 2 mps 698 mmHg 87%
    04:00 +20°C° 0 mm 2 mps 698 mmHg 87%
    05:00 +20°C° 0 mm 2 mps 698 mmHg 87%
    06:00 +20°C° 0 mm 2 mps 698 mmHg 87%
    07:00 +21°C° 0 mm 2 mps 698 mmHg 84%
    08:00 +23°C° 0 mm 2 mps 699 mmHg 80%
    09:00 +24°C° 0 mm 2 mps 699 mmHg 76%
    10:00 +25°C° 0 mm 2 mps 699 mmHg 71%
    11:00 +26°C° 0 mm 2 mps 699 mmHg 67%
    12:00 +28°C° 0 mm 3 mps 698 mmHg 62%
    13:00 +28°C° 0.1 mm 3 mps 698 mmHg 63%
    14:00 +28°C° 0.1 mm 4 mps 698 mmHg 64%
    15:00 +27°C° 0.1 mm 4 mps 697 mmHg 66%
    16:00 +26°C° 0.1 mm 4 mps 697 mmHg 69%
    17:00 +25°C° 0.1 mm 4 mps 696 mmHg 72%
    18:00 +23°C° 0.1 mm 4 mps 696 mmHg 75%
    19:00 +22°C° 0 mm 4 mps 696 mmHg 78%
    20:00 +21°C° 0 mm 4 mps 696 mmHg 81%
    21:00 +20°C° 0 mm 3 mps 697 mmHg 84%
    22:00 +20°C° 0 mm 3 mps 697 mmHg 83%
    23:00 +20°C° 0 mm 3 mps 697 mmHg 83%

    Tomorrow, 21 January, Tuesday

    Time Temperature Precipitation Wind Pressure Humidity
    00:00 +20°C° 0 mm 3 mps 697 mmHg 82%
    01:00 +20°C° 0 mm 3 mps 696 mmHg 83%
    02:00 +20°C° 0 mm 2 mps 696 mmHg 85%
    03:00 +19°C° 0 mm 2 mps 695 mmHg 86%
    04:00 +19°C° 0 mm 2 mps 695 mmHg 86%
    05:00 +19°C° 0 mm 2 mps 695 mmHg 86%
    06:00 +19°C° 0 mm 2 mps 695 mmHg 86%
    07:00 +20°C° 0 mm 2 mps 696 mmHg 81%
    08:00 +21°C° 0 mm 2 mps 696 mmHg 76%
    09:00 +23°C° 0 mm 2 mps 697 mmHg 71%
    10:00 +24°C° 0 mm 2 mps 697 mmHg 67%
    11:00 +25°C° 0 mm 2 mps 696 mmHg 64%
    12:00 +27°C° 0 mm 3 mps 696 mmHg 61%
    13:00 +27°C° 0 mm 3 mps 696 mmHg 62%
    14:00 +26°C° 0 mm 4 mps 695 mmHg 63%
    15:00 +26°C° 0 mm 4 mps 695 mmHg 64%
    16:00 +26°C° 0 mm 4 mps 695 mmHg 67%
    17:00 +25°C° 0 mm 5 mps 695 mmHg 70%
    18:00 +23°C° 0 mm 5 mps 694 mmHg 74%
    19:00 +22°C° 0 mm 4 mps 695 mmHg 77%
    20:00 +21°C° 0 mm 4 mps 695 mmHg 80%
    21:00 +21°C° 0 mm 4 mps 696 mmHg 83%
    22:00 +20°C° 0 mm 3 mps 696 mmHg 84%
    23:00 +20°C° 0 mm 3 mps 696 mmHg 85%

    Day after tomorrow, 22 January, Wednesday

    Time Temperature Precipitation Wind Pressure Humidity
    00:00 +20°C° 0 mm 3 mps 696 mmHg 86%
    01:00 +20°C° 0 mm 3 mps 695 mmHg 86%
    02:00 +20°C° 0 mm 3 mps 695 mmHg 86%
    03:00 +20°C° 0 mm 3 mps 694 mmHg 85%
    04:00 +20°C° 0 mm 3 mps 694 mmHg 86%
    05:00 +20°C° 0 mm 2 mps 694 mmHg 86%
    06:00 +20°C° 0 mm 2 mps 694 mmHg 86%
    07:00 +20°C° 0 mm 2 mps 695 mmHg 82%
    08:00 +21°C° 0 mm 3 mps 695 mmHg 77%
    09:00 +22°C° 0 mm 3 mps 696 mmHg 73%
    10:00 +24°C° 0 mm 3 mps 696 mmHg 69%
    11:00 +26°C° 0 mm 3 mps 696 mmHg 65%
    12:00 +27°C° 0 mm 3 mps 696 mmHg 61%
    13:00 +26°C° 0.4 mm 4 mps 695 mmHg 64%
    14:00 +26°C° 0.4 mm 4 mps 695 mmHg 67%
    15:00 +25°C° 0.4 mm 4 mps 694 mmHg 70%
    16:00 +23°C° 0.3 mm 4 mps 694 mmHg 73%
    17:00 +22°C° 0.3 mm 4 mps 694 mmHg 77%
    18:00 +21°C° 0.3 mm 4 mps 694 mmHg 81%
    19:00 +21°C° 0.9 mm 4 mps 694 mmHg 82%
    20:00 +20°C° 0.9 mm 4 mps 695 mmHg 83%
    21:00 +20°C° 0.9 mm 4 mps 695 mmHg 84%
    22:00 +19°C° 0.2 mm 4 mps 695 mmHg 84%
    23:00 +19°C° 0.2 mm 4 mps 695 mmHg 83%

    23 January, Thursday

    Time Temperature Precipitation Wind Pressure Humidity
    00:00 +19°C° 0.2 mm 3 mps 694 mmHg 83%
    01:00 +18°C° 0.1 mm 3 mps 694 mmHg 83%
    02:00 +18°C° 0.1 mm 3 mps 693 mmHg 83%
    03:00 +18°C° 0.1 mm 3 mps 693 mmHg 83%
    04:00 +18°C° 0 mm 3 mps 693 mmHg 84%
    05:00 +18°C° 0 mm 3 mps 693 mmHg 85%
    06:00 +17°C° 0 mm 3 mps 694 mmHg 85%
    07:00 +18°C° 0.1 mm 3 mps 694 mmHg 85%
    08:00 +18°C° 0.1 mm 3 mps 694 mmHg 85%
    09:00 +18°C° 0.1 mm 3 mps 694 mmHg 85%
    10:00 +18°C° 0.1 mm 2 mps 694 mmHg 85%
    11:00 +18°C° 0.1 mm 2 mps 694 mmHg 85%
    12:00 +19°C° 0.1 mm 2 mps 694 mmHg 84%
    13:00 +19°C° 0.2 mm 3 mps 694 mmHg 83%
    14:00 +19°C° 0.2 mm 3 mps 693 mmHg 82%
    15:00 +20°C° 0.2 mm 3 mps 693 mmHg 81%
    16:00 +19°C° 0 mm 3 mps 693 mmHg 82%
    17:00 +19°C° 0 mm 3 mps 693 mmHg 83%
    18:00 +19°C° 0 mm 3 mps 693 mmHg 84%
    19:00 +19°C° 0 mm 3 mps 693 mmHg 85%
    20:00 +18°C° 0 mm 2 mps 693 mmHg 85%
    21:00 +18°C° 0 mm 2 mps 694 mmHg 86%
    22:00 +18°C° 0 mm 2 mps 693 mmHg 87%
    23:00 +18°C° 0 mm 2 mps 693 mmHg 88%

    24 January, Friday

    Time Temperature Precipitation Wind Pressure Humidity
    00:00 +18°C° 0 mm 3 mps 693 mmHg 89%
    01:00 +18°C° 0 mm 3 mps 693 mmHg 89%
    02:00 +18°C° 0 mm 3 mps 692 mmHg 89%
    03:00 +18°C° 0 mm 3 mps 692 mmHg 88%
    04:00 +18°C° 0 mm 2 mps 692 mmHg 88%
    05:00 +18°C° 0 mm 2 mps 693 mmHg 88%
    06:00 +18°C° 0 mm 2 mps 693 mmHg 87%
    07:00 +19°C° 0 mm 2 mps 693 mmHg 82%
    08:00 +20°C° 0 mm 2 mps 694 mmHg 76%
    09:00 +21°C° 0 mm 2 mps 694 mmHg 71%
    10:00 +24°C° 0 mm 3 mps 694 mmHg 66%
    11:00 +25°C° 0 mm 3 mps 694 mmHg 61%
    12:00 +26°C° 0 mm 3 mps 694 mmHg 56%
    13:00 +26°C° 0.1 mm 4 mps 694 mmHg 56%
    14:00 +26°C° 0.1 mm 4 mps 694 mmHg 56%
    15:00 +26°C° 0.1 mm 5 mps 694 mmHg 56%
    16:00 +25°C° 0 mm 5 mps 694 mmHg 59%
    17:00 +23°C° 0 mm 4 mps 694 mmHg 63%
    18:00 +22°C° 0 mm 4 mps 694 mmHg 66%
    19:00 +22°C° 0 mm 4 mps 694 mmHg 71%
    20:00 +21°C° 0 mm 3 mps 695 mmHg 77%
    21:00 +20°C° 0 mm 3 mps 695 mmHg 82%
    22:00 +20°C° 0.1 mm 3 mps 695 mmHg 82%
    23:00 +20°C° 0.1 mm 2 mps 695 mmHg 83%

    25 January, Saturday

    Time Temperature Precipitation Wind Pressure Humidity
    00:00 +20°C° 0.1 mm 2 mps 696 mmHg 83%
    01:00 +20°C° 0 mm 2 mps 695 mmHg 85%
    02:00 +19°C° 0 mm 2 mps 695 mmHg 86%
    03:00 +20°C° 0 mm 1 mps 694 mmHg 88%
    04:00 +20°C° 0 mm 1 mps 695 mmHg 88%
    05:00 +20°C° 0 mm 1 mps 695 mmHg 88%
    06:00 +19°C° 0 mm 1 mps 695 mmHg 88%
    07:00 +21°C° 0 mm 1 mps 696 mmHg 78%
    08:00 +23°C° 0 mm 1 mps 697 mmHg 69%
    09:00 +25°C° 0 mm 1 mps 697 mmHg 60%
    10:00 +26°C° 0 mm 1 mps 698 mmHg 55%
    11:00 +28°C° 0 mm 1 mps 698 mmHg 49%
    12:00 +30°C° 0 mm 1 mps 698 mmHg 43%
    13:00 +30°C° 0 mm 2 mps 698 mmHg 43%
    14:00 +30°C° 0 mm 2 mps 697 mmHg 43%
    15:00 +31°C° 0 mm 3 mps 697 mmHg 43%
    16:00 +29°C° 0 mm 3 mps 696 mmHg 52%
    17:00 +28°C° 0 mm 3 mps 696 mmHg 61%
    18:00 +26°C° 0 mm 4 mps 696 mmHg 70%
    19:00 +25°C° 0.1 mm 3 mps 696 mmHg 73%
    20:00 +24°C° 0.1 mm 3 mps 697 mmHg 76%
    21:00 +23°C° 0.1 mm 2 mps 697 mmHg 79%
    22:00 +23°C° 0 mm 2 mps 697 mmHg 78%
    23:00 +21°C° 0 mm 2 mps 697 mmHg 78%
    Show more